| time (UTC) | temp C | wind direction | speed KPH | gust KPH | rain 1hr cm | rain 24hr cm | rain mn cm | humidity % | barometer mb |
| 20260504050516 | 11 | 0.0 | 0.0 | 0.00 | 0.00 | 0.00 | 47 | 1009.6 | |
| 20260504045517 | 11 | 0.0 | 0.0 | 0.00 | 0.00 | 0.00 | 46 | 1009.7 | |
| 20260504044522 | 11 | 0.0 | 0.0 | 0.00 | 0.00 | 0.00 | 45 | 1009.7 | |
| 20260504043516 | 12 | 0.0 | 0.0 | 0.00 | 0.00 | 0.00 | 44 | 1009.7 | |
| 20260504042516 | 12 | 0.0 | 0.0 | 0.00 | 0.00 | 0.00 | 43 | 1009.6 | |
| 20260504041515 | 12 | 0.0 | 0.0 | 0.00 | 0.00 | 0.00 | 43 | 1009.6 | |
| 20260504040537 | 12 | 0.0 | 0.0 | 0.00 | 0.00 | 0.00 | 43 | 1009.5 | |
| 20260504035536 | 12 | 0.0 | 0.0 | 0.00 | 0.00 | 0.00 | 43 | 1009.5 | |
| 20260504034535 | 12 | 0.0 | 0.0 | 0.00 | 0.00 | 0.00 | 43 | 1009.5 | |
| 20260504033557 | 12 | 0.0 | 0.0 | 0.00 | 0.00 | 0.00 | 43 | 1009.5 | |
| 20260504032516 | 12 | 0.0 | 0.0 | 0.00 | 0.00 | 0.00 | 43 | 1009.5 | |
| 20260504031515 | 12 | 0.0 | 0.0 | 0.00 | 0.00 | 0.00 | 44 | 1009.6 | |
| 20260504030516 | 12 | 0.0 | 0.0 | 0.00 | 0.00 | 0.00 | 44 | 1009.6 | |
| 20260504025516 | 12 | 0.0 | 0.0 | 0.00 | 0.00 | 0.00 | 45 | 1009.6 | |
| 20260504024516 | 12 | 0.0 | 0.0 | 0.00 | 0.00 | 0.00 | 46 | 1009.7 | |
| 20260504023515 | 12 | 0.0 | 0.0 | 0.00 | 0.00 | 0.00 | 46 | 1009.8 | |
| 20260504022516 | 12 | 0.0 | 0.0 | 0.00 | 0.00 | 0.00 | 47 | 1009.8 | |
| 20260504021516 | 12 | 0.0 | 0.0 | 0.00 | 0.00 | 0.00 | 48 | 1009.9 | |
| 20260504020516 | 12 | 0.0 | 0.0 | 0.00 | 0.00 | 0.00 | 50 | 1009.9 | |
| 20260504015536 | 12 | 0.0 | 0.0 | 0.00 | 0.00 | 0.00 | 53 | 1009.9 | |
| 20260504014517 | 11 | 0.0 | 0.0 | 0.00 | 0.00 | 0.00 | 57 | 1009.9 | |
| 20260504013556 | 11 | 0.0 | 0.0 | 0.00 | 0.00 | 0.00 | 59 | 1009.9 | |
| 20260504012517 | 11 | 0.0 | 0.0 | 0.00 | 0.00 | 0.00 | 60 | 1010.0 | |
| 20260504011516 | 11 | 0.0 | 0.0 | 0.00 | 0.00 | 0.00 | 60 | 1010.2 | |
| 20260504010515 | 11 | 0.0 | 0.0 | 0.00 | 0.00 | 0.00 | 61 | 1010.4 | |
| 20260504005516 | 11 | 0.0 | 0.0 | 0.00 | 0.00 | 0.00 | 63 | 1010.3 | |
| 20260504004516 | 10 | 0.0 | 0.0 | 0.00 | 0.00 | 0.00 | 64 | 1010.2 | |
| 20260504003537 | 10 | 0.0 | 0.0 | 0.00 | 0.00 | 0.00 | 63 | 1010.4 | |
| 20260504002516 | 11 | 0.0 | 0.0 | 0.00 | 0.00 | 0.00 | 62 | 1010.7 | |
| 20260504001516 | 11 | 0.0 | 0.0 | 0.00 | 0.00 | 0.00 | 60 | 1010.7 | |
| 20260504000537 | 11 | 0.0 | 0.0 | 0.00 | 0.00 | 0.00 | 58 | 1010.6 | |
| 20260503235537 | 11 | 0.0 | 0.0 | 0.00 | 0.00 | 0.00 | 57 | 1010.4 | |
| 20260503234516 | 11 | 0.0 | 0.0 | 0.00 | 0.00 | 0.00 | 56 | 1010.3 | |
| 20260503233517 | 12 | 0.0 | 0.0 | 0.00 | 0.00 | 0.00 | 52 | 1010.4 | |
| 20260503232518 | 12 | 0.0 | 0.0 | 0.00 | 0.00 | 0.00 | 47 | 1010.4 | |
| 20260503231516 | 12 | 0.0 | 0.0 | 0.00 | 0.00 | 0.00 | 43 | 1010.1 | |
| 20260503230517 | 12 | 0.0 | 0.0 | 0.00 | 0.00 | 0.00 | 42 | 1009.8 | |
| 20260503225556 | 13 | 0.0 | 0.0 | 0.00 | 0.00 | 0.00 | 41 | 1009.6 | |
| 20260503224516 | 13 | 0.0 | 0.0 | 0.00 | 0.00 | 0.00 | 39 | 1009.6 | |
| 20260503223537 | 13 | 0.0 | 0.0 | 0.00 | 0.00 | 0.00 | 38 | 1009.5 | |
| 20260503222517 | 13 | 0.0 | 0.0 | 0.00 | 0.00 | 0.00 | 36 | 1009.5 | |
| 20260503221516 | 13 | 0.0 | 0.0 | 0.00 | 0.00 | 0.00 | 36 | 1009.3 | |
| 20260503220515 | 13 | 0.0 | 0.0 | 0.00 | 0.00 | 0.00 | 36 | 1009.4 | |
| 20260503215516 | 13 | 0.0 | 0.0 | 0.00 | 0.00 | 0.00 | 37 | 1009.6 | |
| 20260503214515 | 13 | 0.0 | 0.0 | 0.00 | 0.00 | 0.00 | 37 | 1009.6 | |
| 20260503213517 | 13 | 0.0 | 0.0 | 0.00 | 0.00 | 0.00 | 36 | 1009.7 | |
| 20260503212515 | 14 | 0.0 | 0.0 | 0.00 | 0.00 | 0.00 | 35 | 1009.7 | |
| 20260503211517 | 14 | 0.0 | 0.0 | 0.00 | 0.00 | 0.00 | 35 | 1009.4 | |
| 20260503210516 | 14 | 0.0 | 0.0 | 0.00 | 0.00 | 0.00 | 34 | 1009.5 | |
| 20260503205515 | 14 | 0.0 | 0.0 | 0.00 | 0.00 | 0.00 | 33 | 1009.4 | |
| 20260503204516 | 15 | 0.0 | 0.0 | 0.00 | 0.00 | 0.00 | 33 | 1009.4 | |
| 20260503203516 | 14 | 0.0 | 0.0 | 0.00 | 0.00 | 0.00 | 33 | 1009.5 | |
| 20260503202517 | 15 | 0.0 | 0.0 | 0.00 | 0.00 | 0.00 | 32 | 1009.7 | |
| 20260503201516 | 14 | 0.0 | 0.0 | 0.00 | 0.00 | 0.00 | 33 | 1009.8 | |
| 20260503200517 | 14 | 0.0 | 0.0 | 0.00 | 0.00 | 0.00 | 32 | 1010.0 | |
| 20260503195516 | 13 | 0.0 | 0.0 | 0.00 | 0.00 | 0.00 | 32 | 1010.1 | |
| 20260503194516 | 14 | 0.0 | 0.0 | 0.00 | 0.00 | 0.00 | 31 | 1010.4 | |
| 20260503193517 | 13 | 0.0 | 0.0 | 0.00 | 0.00 | 0.00 | 31 | 1010.5 | |
| 20260503192516 | 13 | 0.0 | 0.0 | 0.00 | 0.00 | 0.00 | 33 | 1010.8 | |
| 20260503191515 | 13 | 0.0 | 0.0 | 0.00 | 0.00 | 0.00 | 33 | 1011.0 | |
| 20260503190517 | 13 | 0.0 | 0.0 | 0.00 | 0.00 | 0.00 | 33 | 1011.3 | |
| 20260503185516 | 13 | 0.0 | 0.0 | 0.00 | 0.00 | 0.00 | 32 | 1011.3 | |
| 20260503184516 | 13 | 0.0 | 0.0 | 0.00 | 0.00 | 0.00 | 33 | 1011.5 | |
| 20260503183516 | 12 | 0.0 | 0.0 | 0.00 | 0.00 | 0.00 | 32 | 1011.5 | |
| 20260503182517 | 12 | 0.0 | 0.0 | 0.00 | 0.00 | 0.00 | 35 | 1011.6 | |
| 20260503181516 | 12 | 0.0 | 0.0 | 0.00 | 0.00 | 0.00 | 36 | 1011.9 | |
| 20260503180515 | 12 | 0.0 | 0.0 | 0.00 | 0.00 | 0.00 | 37 | 1011.9 | |
| 20260503175515 | 13 | 0.0 | 0.0 | 0.00 | 0.00 | 0.00 | 40 | 1011.9 | |
| 20260503174516 | 13 | 0.0 | 0.0 | 0.00 | 0.00 | 0.00 | 42 | 1012.0 | |
| 20260503173517 | 12 | 0.0 | 0.0 | 0.00 | 0.00 | 0.00 | 41 | 1012.1 | |
| 20260503172516 | 12 | 0.0 | 0.0 | 0.00 | 0.00 | 0.00 | 40 | 1012.2 | |
| 20260503171516 | 12 | 0.0 | 0.0 | 0.00 | 0.00 | 0.00 | 41 | 1012.2 | |
| 20260503170517 | 12 | 0.0 | 0.0 | 0.00 | 0.00 | 0.00 | 42 | 1012.4 | |
| 20260503150517 | 11 | 0.0 | 0.0 | 0.00 | 0.00 | 0.00 | 43 | 1013.7 | |
| 20260503130517 | 7 | 0.0 | 0.0 | 0.00 | 0.00 | 0.00 | 54 | 1015.1 | |
| 20260503110518 | 3 | 0.0 | 0.0 | 0.00 | 0.00 | 0.00 | 72 | 1016.0 | |
| 20260503081516 | 3 | 0.0 | 0.0 | 0.00 | 0.00 | 0.00 | 70 | 1015.5 | |
| 20260503080516 | 3 | 0.0 | 0.0 | 0.00 | 0.00 | 0.00 | 70 | 1015.6 | |
| 20260503072518 | 3 | 0.0 | 0.0 | 0.00 | 0.00 | 0.00 | 69 | 1015.5 | |
| 20260503071516 | 3 | 0.0 | 0.0 | 0.00 | 0.00 | 0.00 | 68 | 1015.5 | |
| 20260503070515 | 3 | 0.0 | 0.0 | 0.00 | 0.00 | 0.00 | 67 | 1015.4 | |
| 20260503054555 | 5 | 0.0 | 0.0 | 0.00 | 0.00 | 0.00 | 63 | 1015.6 |